Oak Harbor, WA

3:09 AM PST on December 04, 2016 (GMT -0800)
Whidbey Island Naval Air Station

Weather History for KNUW - November, 2012

Change the Weather History Date:

Monday, November 5, 2012

  Actual Average Record
Temperature  
Mean Temperature 48 °F -  
Max Temperature 55 °F 51 °F 64 °F (2016)
Min Temperature 42 °F 38 °F 24 °F (2003)
Degree Days  
Heating Degree Days 16    
Moisture  
Dew Point 44 °F    
Average Humidity 82    
Maximum Humidity 90    
Minimum Humidity 62    
Precipitation  
Precipitation 0.01 in - - ()
Sea Level Pressure  
Sea Level Pressure 30.34 in    
Wind  
Wind Speed 5 mph (West)    
Max Wind Speed 16 mph    
Max Gust Speed -    
Visibility 10 miles    
Events      
Averages and records for this station are not official NWS values.
T = Trace of Precipitation, MM = Missing Value Source: NWS Daily Summary

Daily Weather History Graph

Daily Weather History Graph

Search for Another Location

Airport or City:

Trip Planner

Search our weather history database for the weather conditions in past years. The results will help you decide how hot, cold, wet, or windy it might be!

Date:

Astronomy

Nov. 05, 2012 Rise Set
Actual Time 7:03 AM PST 4:44 PM PST
Civil Twilight 6:30 AM PST 5:17 PM PST
Nautical Twilight 5:53 AM PST 5:54 PM PST
Astronomical Twilight 5:16 AM PST 6:31 PM PST
Moon 10:28 PM PST (11/5) 12:26 PM PST (11/5)
Length of Visible Light 10h 47m
Length of Day
9h 40m
Waning Gibbous, 62% of the Moon is Illuminated
Nov 5
Waning Gibbous
Nov 6
Last Quarter
Nov 13
New
Nov 20
First Quarter
Nov 28
Full

Hourly Weather History & Observations

Time (PST) Temp. Dew Point Humidity Pressure Visibility Wind Dir Wind Speed Gust Speed Precip Events Conditions
12:56 AM 53.1 °F 48.9 °F 86% 30.32 in 10.0 mi SW 8.1 mph - N/A   Overcast
1:56 AM 52.0 °F 48.0 °F 86% 30.35 in 10.0 mi WSW 8.1 mph - N/A   Overcast
2:56 AM 51.1 °F 46.0 °F 83% 30.38 in 10.0 mi NW 8.1 mph - N/A   Overcast
3:56 AM 52.0 °F 44.1 °F 74% 30.37 in 10.0 mi WNW 3.5 mph - N/A   Overcast
4:56 AM 51.1 °F 46.0 °F 83% 30.37 in 9.0 mi West 16.1 mph - N/A   Overcast
5:56 AM 51.1 °F 46.0 °F 83% 30.40 in 10.0 mi WNW 4.6 mph - N/A   Mostly Cloudy
6:56 AM 48.9 °F 44.1 °F 83% 30.40 in 6.0 mi WSW 3.5 mph - N/A   Haze
7:56 AM 48.9 °F 45.0 °F 86% 30.40 in 8.0 mi ESE 4.6 mph - N/A   Overcast
8:56 AM 51.1 °F 46.9 °F 86% 30.40 in 10.0 mi Calm Calm - N/A   Overcast
9:56 AM 53.1 °F 46.9 °F 80% 30.41 in 9.0 mi WNW 3.5 mph - N/A   Overcast
10:56 AM 53.1 °F 44.1 °F 71% 30.41 in 9.0 mi WNW 3.5 mph - N/A   Overcast
11:56 AM 55.0 °F 42.1 °F 62% 30.41 in 10.0 mi West 4.6 mph - N/A   Overcast
12:56 PM 54.0 °F 44.1 °F 69% 30.40 in 9.0 mi Calm Calm - N/A   Overcast
1:56 PM 53.1 °F 44.1 °F 71% 30.38 in 9.0 mi West 3.5 mph - N/A   Overcast
2:56 PM 52.0 °F 46.0 °F 80% 30.37 in 10.0 mi West 3.5 mph - N/A   Overcast
3:56 PM 50.0 °F 46.0 °F 86% 30.36 in 10.0 mi WNW 3.5 mph - N/A   Overcast
4:56 PM 48.0 °F 45.0 °F 89% 30.34 in 10.0 mi Calm Calm - N/A   Overcast
5:56 PM 46.9 °F 44.1 °F 90% 30.33 in 10.0 mi North 3.5 mph - N/A   Overcast
6:56 PM 46.9 °F 43.0 °F 86% 30.30 in 10.0 mi Calm Calm - N/A   Overcast
7:56 PM 46.9 °F 43.0 °F 86% 30.27 in 10.0 mi SE 3.5 mph - N/A   Overcast
8:56 PM 46.0 °F 42.1 °F 86% 30.24 in 10.0 mi Calm Calm - N/A   Overcast
9:56 PM 44.1 °F 41.0 °F 89% 30.23 in 10.0 mi Calm Calm - 0.01 in   Overcast
10:56 PM 42.1 °F 39.0 °F 89% 30.21 in 10.0 mi Calm Calm - N/A   Mostly Cloudy
11:56 PM 43.0 °F 39.9 °F 89% 30.20 in 10.0 mi Calm Calm - N/A   Mostly Cloudy